EW7351 Weather Reports


time (UTC)temp
C
wind
direction
speed
KPH
gust
KPH
rain 1hr
cm
rain 24hr
cm
rain mn
cm
humidity
%
barometer
mb
20260901191002 37 145 3.2 14.5 0.00 0.00 0.00 36 1013.9
20260901190233 37 249 1.6 8.0 0.00 0.00 0.00 38 1014.0
20260901185723 37 109 1.6 8.0 0.00 0.00 0.00 37 1013.9
20260901185158 37 347 3.2 8.0 0.00 0.00 0.00 36 1014.1
20260901184628 37 133 3.2 11.3 0.00 0.00 0.00 37 1014.2
20260901184355 37 191 3.2 11.3 0.00 0.00 0.00 37 1014.3
20260901183623 37 165 1.6 8.0 0.00 0.00 0.00 39 1014.4
20260901183344 36 91 3.2 12.9 0.00 0.00 0.00 37 1014.5
20260901182556 36 110 4.8 12.9 0.00 0.00 0.00 39 1014.5
20260901182031 36 129 6.4 16.1 0.00 0.00 0.00 39 1014.8
20260901181508 36 288 6.4 16.1 0.00 0.00 0.00 39 1014.9
20260901180957 36 170 4.8 14.5 0.00 0.00 0.00 39 1014.9
20260901180433 36 107 1.6 14.5 0.00 0.00 0.00 38 1015.0
20260901175903 36 34 3.2 9.7 0.00 0.00 0.00 38 1015.1
20260901175402 36 135 3.2 9.7 0.00 0.00 0.00 37 1015.2
20260901174833 36 146 1.6 8.0 0.00 0.00 0.00 36 1015.3
20260901174331 36 56 1.6 8.0 0.00 0.00 0.00 38 1015.4
20260901173806 36 23 3.2 11.3 0.00 0.00 0.00 37 1015.5
20260901173237 36 148 3.2 11.3 0.00 0.00 0.00 36 1015.5
20260901172712 36 248 3.2 14.5 0.00 0.00 0.00 38 1015.6
20260901172209 36 146 3.2 14.5 0.00 0.00 0.00 39 1015.7
20260901171931 36 318 1.6 11.3 0.00 0.00 0.00 40 1015.7
20260901171206 36 64 1.6 11.3 0.00 0.00 0.00 40 1015.8
20260901170701 36 131 3.2 11.3 0.00 0.00 0.00 39 1015.8
20260901170200 35 92 4.8 11.3 0.00 0.00 0.00 40 1015.8
20260901165631 35 134 3.2 12.9 0.00 0.00 0.00 43 1015.8
20260901165349 35 219 1.6 12.9 0.00 0.00 0.00 42 1015.9
20260901164605 35 153 3.2 12.9 0.00 0.00 0.00 42 1015.9
20260901164037 35 240 1.6 11.3 0.00 0.00 0.00 40 1015.9
20260901163512 35 208 1.6 6.4 0.00 0.00 0.00 44 1016.0
20260901162943 35 116 0.0 6.4 0.00 0.00 0.00 45 1016.0
20260901162441 35 153 1.6 9.7 0.00 0.00 0.00 46 1016.1
20260901161916 35 4 1.6 9.7 0.00 0.00 0.00 45 1016.0
20260901161350 35 167 3.2 9.7 0.00 0.00 0.00 46 1016.1
20260901160822 34 224 3.2 9.7 0.00 0.00 0.00 46 1016.1
20260901160317 34 162 1.6 8.0 0.00 0.00 0.00 46 1016.0
20260901155811 34 234 1.6 8.0 0.00 0.00 0.00 48 1016.0
20260901155309 34 127 1.6 6.4 0.00 0.00 0.00 47 1016.0
20260901154741 34 120 1.6 6.4 0.00 0.00 0.00 46 1016.0
20260901154239 34 155 0.0 6.4 0.00 0.00 0.00 46 1016.0
20260901153711 33 122 1.6 8.0 0.00 0.00 0.00 49 1015.9
20260901153208 33 223 1.6 8.0 0.00 0.00 0.00 50 1015.9
20260901152707 33 10 1.6 8.0 0.00 0.00 0.00 51 1015.9
20260901152139 33 147 1.6 8.0 0.00 0.00 0.00 50 1015.9
20260901151638 33 255 1.6 8.0 0.00 0.00 0.00 51 1015.9
20260901151129 32 253 1.6 11.3 0.00 0.00 0.00 52 1015.9
20260901150626 32 240 1.6 9.7 0.00 0.00 0.00 52 1016.0
20260901150100 32 260 0.0 6.4 0.00 0.00 0.00 54 1016.1
20260901145557 32 134 1.6 8.0 0.00 0.00 0.00 54 1016.1
20260901145056 31 103 1.6 8.0 0.00 0.00 0.00 54 1016.1
20260901144551 32 203 1.6 6.4 0.00 0.00 0.00 54 1016.2
20260901144050 31 159 0.0 4.8 0.00 0.00 0.00 55 1016.2
20260901143521 31 219 0.0 4.8 0.00 0.00 0.00 55 1016.2
20260901143022 31 131 0.0 6.4 0.00 0.00 0.00 56 1016.3
20260901142451 31 229 1.6 6.4 0.00 0.00 0.00 58 1016.2
20260901141950 30 153 1.6 4.8 0.00 0.00 0.00 59 1016.1
20260901141445 30 159 1.6 6.4 0.00 0.00 0.00 59 1016.1
20260901140942 30 133 0.0 6.4 0.00 0.00 0.00 59 1016.1
20260901140419 30 164 1.6 6.4 0.00 0.00 0.00 61 1016.2
20260901135914 29 233 1.6 6.4 0.00 0.00 0.00 61 1016.2
20260901135411 29 130 1.6 6.4 0.00 0.00 0.00 62 1016.2
20260901134843 29 223 1.6 6.4 0.00 0.00 0.00 62 1016.3
20260901134342 28 130 1.6 4.8 0.00 0.00 0.00 63 1016.3
20260901133812 28 167 1.6 4.8 0.00 0.00 0.00 64 1016.2
20260901133313 28 130 1.6 6.4 0.00 0.00 0.00 64 1016.2
20260901132743 28 191 1.6 4.8 0.00 0.00 0.00 66 1016.2
20260901132432 27 217 1.6 4.8 0.00 0.00 0.00 66 1016.2
20260901132128 27 131 0.0 8.0 0.00 0.00 0.00 66 1016.2
20260901131116 27 130 0.0 4.8 0.00 0.00 0.00 67 1016.1
20260901130546 27 101 0.0 4.8 0.00 0.00 0.00 68 1016.1
20260901130045 27 162 0.0 4.8 0.00 0.00 0.00 68 1016.0
20260901130029 27 157 0.0 6.4 0.00 0.00 0.00 69 1015.9
20260901125044 26 178 1.6 6.4 0.00 0.00 0.00 69 1015.9
20260901124541 26 112 0.0 3.2 0.00 0.00 0.00 69 1015.8
20260901124013 26 116 0.0 3.2 0.00 0.00 0.00 70 1015.8
20260901123515 26 115 0.0 3.2 0.00 0.00 0.00 70 1015.7
20260901122948 26 137 0.0 1.6 0.00 0.00 0.00 70 1015.6
20260901122423 26 141 0.0 3.2 0.00 0.00 0.00 71 1015.5
20260901121921 26 127 0.0 3.2 0.00 0.00 0.00 71 1015.4
20260901121420 25 129 0.0 1.6 0.00 0.00 0.00 71 1015.4
20260901120916 25 129 0.0 1.6 0.00 0.00 0.00 71 1015.3
20260901120417 25 130 0.0 0.0 0.00 0.00 0.00 70 1015.2
20260901115853 26 130 0.0 0.0 0.00 0.00 0.00 69 1015.2
20260901115327 26 130 0.0 0.0 0.00 0.00 0.00 69 1015.0
20260901114828 26 130 0.0 0.0 0.00 0.00 0.00 68 1015.0
20260901114307 26 129 0.0 1.6 0.00 0.00 0.00 68 1015.0
20260901113805 26 129 0.0 3.2 0.00 0.00 0.00 67 1015.0
20260901113302 26 159 0.0 3.2 0.00 0.00 0.00 67 1015.0
20260901112803 26 111 0.0 1.6 0.00 0.00 0.00 67 1014.9
20260901112518 26 111 0.0 1.6 0.00 0.00 0.00 67 1014.9
20260901111749 26 276 0.0 0.0 0.00 0.00 0.00 67 1014.8
20260901111220 26 276 0.0 0.0 0.00 0.00 0.00 66 1014.8
20260901110703 26 139 0.0 3.2 0.00 0.00 0.00 65 1014.8
20260901110139 26 158 0.0 3.2 0.00 0.00 0.00 65 1014.8
20260901105638 26 167 0.0 1.6 0.00 0.00 0.00 65 1014.8
20260901105138 27 132 0.0 1.6 0.00 0.00 0.00 64 1014.7
20260901104617 27 165 0.0 3.2 0.00 0.00 0.00 64 1014.7
20260901104046 27 165 0.0 6.4 0.00 0.00 0.00 63 1014.7
20260901103546 27 183 1.6 6.4 0.00 0.00 0.00 63 1014.8
20260901103021 27 293 1.6 8.0 0.00 0.00 0.00 62 1014.8
20260901102457 27 196 1.6 6.4 0.00 0.00 0.00 62 1014.8
20260901101931 27 239 0.0 6.4 0.00 0.00 0.00 62 1014.8
20260901101405 27 158 0.0 4.8 0.00 0.00 0.00 62 1014.8
20260901100905 27 225 1.6 9.7 0.00 0.00 0.00 62 1014.8
20260901100338 27 117 1.6 11.3 0.00 0.00 0.00 62 1014.8
20260901100055 27 127 1.6 11.3 0.00 0.00 0.00 62 1014.8
20260901095317 27 158 0.0 4.8 0.00 0.00 0.00 62 1014.9
20260901094758 28 156 1.6 4.8 0.00 0.00 0.00 62 1014.9
20260901094250 28 162 1.6 9.7 0.00 0.00 0.00 61 1014.9
20260901093748 28 229 1.6 9.7 0.00 0.00 0.00 61 1014.9
20260901093223 28 206 0.0 6.4 0.00 0.00 0.00 61 1015.0
20260901092945 28 236 1.6 6.4 0.00 0.00 0.00 61 1014.9
20260901092216 28 286 1.6 6.4 0.00 0.00 0.00 61 1014.9
20260901091911 28 146 1.6 6.4 0.00 0.00 0.00 60 1015.0
20260901091133 28 130 1.6 6.4 0.00 0.00 0.00 60 1015.0
20260901090632 28 124 1.6 4.8 0.00 0.00 0.00 59 1014.9
20260901090132 28 111 0.0 4.8 0.00 0.00 0.00 58 1014.8
20260901085852 28 167 0.0 4.8 0.00 0.00 0.00 58 1014.7
20260901085107 28 111 0.0 4.8 0.00 0.00 0.00 57 1014.7
20260901084606 28 153 1.6 4.8 0.00 0.00 0.00 56 1014.7
20260901084326 28 121 1.6 4.8 0.00 0.00 0.00 56 1014.7
20260901083600 28 98 3.2 8.0 0.00 0.00 0.00 55 1014.6
20260901083033 28 174 3.2 11.3 0.00 0.00 0.00 55 1014.5
20260901082530 28 220 3.2 9.7 0.00 0.00 0.00 55 1014.5
20260901082028 29 245 3.2 8.0 0.00 0.00 0.00 55 1014.6
20260901081500 29 108 3.2 8.0 0.00 0.00 0.00 55 1014.7
20260901081220 29 146 1.6 11.3 0.00 0.00 0.00 55 1014.6
20260901080430 29 186 1.6 8.0 0.00 0.00 0.00 55 1014.5
20260901080129 29 233 1.6 6.4 0.00 0.00 0.00 56 1014.5
20260901075340 29 147 1.6 6.4 0.00 0.00 0.00 56 1014.5
20260901074836 29 247 1.6 6.4 0.00 0.00 0.00 56 1014.5
20260901074335 29 130 1.6 6.4 0.00 0.00 0.00 56 1014.5
20260901073818 29 150 1.6 6.4 0.00 0.00 0.00 55 1014.5
20260901073321 29 119 1.6 8.0 0.00 0.00 0.00 55 1014.5
20260901073012 29 138 1.6 11.3 0.00 0.00 0.00 54 1014.5
20260901072450 29 141 3.2 11.3 0.00 0.00 0.00 53 1014.5
20260901071701 29 124 3.2 8.0 0.00 0.00 0.00 53 1014.5
20260901071159 29 132 3.2 12.9 0.00 0.00 0.00 53 1014.4
20260901070630 29 172 3.2 9.7 0.00 0.00 0.00 53 1014.4
20260901070128 29 141 3.2 11.3 0.00 0.00 0.00 53 1014.5
20260901065600 30 152 3.2 11.3 0.00 0.00 0.00 52 1014.4
20260901065542 30 132 3.2 11.3 0.00 0.00 0.00 52 1014.5
20260901064530 30 146 3.2 11.3 0.00 0.00 0.00 52 1014.4
20260901064247 30 133 3.2 11.3 0.00 0.00 0.00 52 1014.3
20260901063524 30 146 1.6 11.3 0.00 0.00 0.00 52 1014.3
20260901062959 30 143 1.6 11.3 0.00 0.00 0.00 51 1014.3
20260901062434 30 122 1.6 4.8 0.00 0.00 0.00 51 1014.3
20260901061906 30 110 1.6 6.4 0.00 0.00 0.00 50 1014.3
20260901061403 30 136 1.6 6.4 0.00 0.00 0.00 50 1014.2
20260901060900 30 126 3.2 8.0 0.00 0.00 0.00 50 1014.2
20260901060357 30 125 3.2 9.7 0.00 0.00 0.00 49 1014.1
20260901055854 30 129 3.2 9.7 0.00 0.00 0.00 49 1014.0
20260901055350 30 103 3.2 9.7 0.00 0.00 0.00 49 1013.9
20260901055112 30 135 3.2 9.7 0.00 0.00 0.00 49 1013.9
20260901054347 30 165 3.2 8.0 0.00 0.00 0.00 49 1013.8
20260901053819 30 105 3.2 9.7 0.00 0.00 0.00 49 1013.9
20260901053312 30 117 3.2 9.7 0.00 0.00 0.00 49 1013.8
20260901052808 30 116 3.2 9.7 0.00 0.00 0.00 48 1013.7
20260901052308 30 117 3.2 9.7 0.00 0.00 0.00 47 1013.7
20260901051740 30 108 4.8 12.9 0.00 0.00 0.00 47 1013.7
20260901051239 30 108 4.8 12.9 0.00 0.00 0.00 46 1013.7
20260901050734 30 147 3.2 12.9 0.00 0.00 0.00 46 1013.7
20260901050453 30 129 3.2 9.7 0.00 0.00 0.00 47 1013.6
20260901045708 30 129 1.6 8.0 0.00 0.00 0.00 47 1013.6
20260901045207 30 119 1.6 6.4 0.00 0.00 0.00 47 1013.7
20260901044638 30 139 1.6 6.4 0.00 0.00 0.00 48 1013.5
20260901044134 29 124 0.0 6.4 0.00 0.00 0.00 49 1013.5
20260901043611 28 121 0.0 1.6 0.00 0.00 0.00 50 1013.5
20260901043310 28 121 0.0 1.6 0.00 0.00 0.00 52 1013.4
20260901042545 28 121 0.0 1.6 0.00 0.00 0.00 54 1013.5
20260901042022 27 121 0.0 0.0 0.00 0.00 0.00 56 1013.4
20260901041502 27 121 0.0 1.6 0.00 0.00 0.00 56 1013.5
20260901041000 27 121 0.0 1.6 0.00 0.00 0.00 57 1013.5
20260901040454 27 121 0.0 0.0 0.00 0.00 0.00 55 1013.3
20260901035955 28 121 0.0 0.0 0.00 0.00 0.00 54 1013.3
20260901035451 28 121 0.0 0.0 0.00 0.00 0.00 54 1013.4
20260901034950 28 121 0.0 0.0 0.00 0.00 0.00 52 1013.4
20260901034427 28 121 0.0 0.0 0.00 0.00 0.00 52 1013.4
20260901033926 29 121 0.0 0.0 0.00 0.00 0.00 51 1013.4
20260901033422 30 121 0.0 0.0 0.00 0.00 0.00 50 1013.3
20260901032901 30 121 0.0 0.0 0.00 0.00 0.00 49 1013.3
20260901032347 30 121 0.0 0.0 0.00 0.00 0.00 47 1013.3
20260901031846 31 121 0.0 0.0 0.00 0.00 0.00 47 1013.3
20260901031610 31 121 0.0 0.0 0.00 0.00 0.00 45 1013.3
20260901030828 31 121 0.0 0.0 0.00 0.00 0.00 43 1013.2
20260901030308 31 121 0.0 0.0 0.00 0.00 0.00 42 1013.1
20260901025742 31 121 0.0 0.0 0.00 0.00 0.00 42 1013.1
20260901025456 31 121 0.0 0.0 0.00 0.00 0.00 42 1013.0
20260901024705 31 121 0.0 0.0 0.00 0.00 0.00 42 1012.9
20260901024142 32 121 0.0 0.0 0.00 0.00 0.00 42 1012.8
20260901023621 32 121 0.0 0.0 0.00 0.00 0.00 43 1012.8
20260901023119 32 121 0.0 0.0 0.00 0.00 0.00 43 1012.7
20260901022620 32 128 0.0 0.0 0.00 0.00 0.00 42 1012.7
20260901022054 32 128 0.0 1.6 0.00 0.00 0.00 41 1012.6
20260901021549 32 128 0.0 1.6 0.00 0.00 0.00 40 1012.6
20260901021030 32 128 0.0 1.6 0.00 0.00 0.00 40 1012.5
20260901020459 32 128 0.0 1.6 0.00 0.00 0.00 40 1012.5
20260901015934 32 122 0.0 0.0 0.00 0.00 0.00 40 1012.4
20260901015640 33 122 0.0 3.2 0.00 0.00 0.00 39 1012.4
20260901014847 33 139 0.0 3.2 0.00 0.00 0.00 38 1012.4
20260901014329 33 121 0.0 1.6 0.00 0.00 0.00 38 1012.4
20260901013803 33 123 0.0 1.6 0.00 0.00 0.00 37 1012.4
20260901013708 33 113 0.0 1.6 0.00 0.00 0.00 36 1012.4
20260901013327 33 113 0.0 1.6 0.00 0.00 0.00 37 1012.3
20260901012231 33 134 0.0 1.6 0.00 0.00 0.00 36 1012.2
20260901011727 34 134 0.0 3.2 0.00 0.00 0.00 35 1012.3
20260901011158 34 127 0.0 4.8 0.00 0.00 0.00 34 1012.2
20260901010658 34 148 1.6 3.2 0.00 0.00 0.00 33 1012.2
20260901010153 35 132 1.6 6.4 0.00 0.00 0.00 32 1012.1
20260901005653 35 140 0.0 4.8 0.00 0.00 0.00 32 1012.1
20260901005127 35 139 1.6 6.4 0.00 0.00 0.00 31 1012.1
20260901004846 35 131 1.6 4.8 0.00 0.00 0.00 31 1012.0
20260901004033 35 121 3.2 9.7 0.00 0.00 0.00 30 1012.1
20260901003534 36 120 3.2 9.7 0.00 0.00 0.00 29 1012.0
20260901003005 36 133 3.2 12.9 0.00 0.00 0.00 28 1012.0
20260901002501 36 132 4.8 12.9 0.00 0.00 0.00 28 1012.0
20260901001955 36 110 4.8 12.9 0.00 0.00 0.00 28 1012.0
20260901001720 37 101 3.2 9.7 0.00 0.00 0.00 28 1012.0
20260901001416 37 167 3.2 9.7 0.00 0.00 0.00 27 1012.1
20260901000359 37 130 1.6 8.0 0.00 0.00 0.00 27 1012.0
20260831235856 37 120 3.2 8.0 0.00 0.00 0.00 26 1012.0
20260831235340 37 101 4.8 12.9 0.00 0.00 0.00 26 1012.1
20260831234946 37 121 3.2 11.3 0.00 0.00 0.00 26 1012.1
20260831234218 37 113 1.6 9.7 0.00 0.00 0.00 26 1012.1
20260831233713 37 112 1.6 8.0 0.00 0.00 0.00 27 1012.1
20260831233146 37 155 3.2 9.7 0.00 0.00 0.00 26 1012.0
20260831232622 37 151 3.2 11.3 0.00 0.00 0.00 26 1012.0
20260831232053 37 127 3.2 11.3 0.00 0.00 0.00 25 1012.0
20260831231527 37 158 3.2 14.5 0.00 0.00 0.00 26 1011.9
20260831231223 37 135 3.2 9.7 0.00 0.00 0.00 25 1012.0
20260831230435 37 218 4.8 11.3 0.00 0.00 0.00 25 1012.0
20260831225907 38 141 4.8 12.9 0.00 0.00 0.00 24 1012.1
20260831225403 38 134 4.8 12.9 0.00 0.00 0.00 24 1012.1
20260831224838 38 176 4.8 14.5 0.00 0.00 0.00 24 1012.2
20260831224309 38 233 3.2 14.5 0.00 0.00 0.00 24 1012.2
20260831223807 38 158 3.2 9.7 0.00 0.00 0.00 24 1012.2
20260831223303 38 107 4.8 9.7 0.00 0.00 0.00 24 1012.3
20260831222802 38 232 4.8 11.3 0.00 0.00 0.00 24 1012.3
20260831222232 38 136 3.2 11.3 0.00 0.00 0.00 25 1012.3
20260831221953 38 113 3.2 9.7 0.00 0.00 0.00 25 1012.4
20260831221223 38 115 4.8 12.9 0.00 0.00 0.00 24 1012.4
20260831220722 38 117 4.8 14.5 0.00 0.00 0.00 24 1012.4
20260831220154 38 152 4.8 12.9 0.00 0.00 0.00 24 1012.5
20260831215651 38 222 4.8 11.3 0.00 0.00 0.00 24 1012.5
20260831215120 38 119 4.8 11.3 0.00 0.00 0.00 24 1012.5
20260831214556 38 94 6.4 14.5 0.00 0.00 0.00 25 1012.6
20260831214029 38 215 4.8 14.5 0.00 0.00 0.00 24 1012.6
20260831213501 38 159 4.8 12.9 0.00 0.00 0.00 24 1012.7
20260831212959 38 161 3.2 9.7 0.00 0.00 0.00 25 1012.7
20260831212654 38 129 4.8 16.1 0.00 0.00 0.00 26 1012.8
20260831211905 38 126 4.8 16.1 0.00 0.00 0.00 26 1012.8
20260831211404 38 208 6.4 16.1 0.00 0.00 0.00 24 1012.9
20260831210855 38 146 4.8 16.1 0.00 0.00 0.00 25 1013.0
20260831210354 38 229 4.8 12.9 0.00 0.00 0.00 26 1013.0
20260831205828 37 120 6.4 16.1 0.00 0.00 0.00 26 1013.1
20260831205544 38 122 6.4 17.7 0.00 0.00 0.00 26 1013.2
20260831204818 38 147 4.8 17.7 0.00 0.00 0.00 26 1013.2
20260831204249 38 126 6.4 14.5 0.00 0.00 0.00 26 1013.4
20260831203747 38 135 4.8 14.5 0.00 0.00 0.00 26 1013.4
20260831203244 38 207 6.4 16.1 0.00 0.00 0.00 25 1013.5
20260831202718 38 109 4.8 17.7 0.00 0.00 0.00 25 1013.5
20260831202203 38 123 3.2 16.1 0.00 0.00 0.00 25 1013.6
20260831201703 38 114 6.4 16.1 0.00 0.00 0.00 24 1013.7
20260831201203 37 247 6.4 16.1 0.00 0.00 0.00 26 1013.7
20260831200701 38 148 4.8 16.1 0.00 0.00 0.00 26 1013.7
20260831200201 38 186 6.4 16.1 0.00 0.00 0.00 25 1013.9
20260831195915 38 250 4.8 16.1 0.00 0.00 0.00 27 1014.0
20260831195152 38 165 4.8 16.1 0.00 0.00 0.00 26 1014.1
20260831194649 38 107 6.4 12.9 0.00 0.00 0.00 27 1014.1
20260831194146 37 230 8.0 17.7 0.00 0.00 0.00 30 1014.2
20260831193621 37 210 6.4 17.7 0.00 0.00 0.00 29 1014.3
20260831193055 37 134 6.4 16.1 0.00 0.00 0.00 29 1014.4
20260831192530 37 221 6.4 14.5 0.00 0.00 0.00 30 1014.4
20260831192001 37 231 6.4 14.5 0.00 0.00 0.00 30 1014.5
20260831191500 37 110 6.4 14.5 0.00 0.00 0.00 31 1014.6